Year,Month,Day,Hour,Minute,Value (Times are PST for temperature in C)
2013,09,22,00,00,11.90
2013,09,22,00,01,11.90
2013,09,22,00,02,11.90
2013,09,22,00,38,11.90
2013,09,22,00,39,11.90
2013,09,22,00,40,11.90
2013,09,22,00,41,11.90
2013,09,22,00,47,11.90
2013,09,22,00,52,11.90
2013,09,22,00,53,11.90
2013,09,22,04,32,11.20
2013,09,22,04,33,11.20
2013,09,22,04,34,11.20
2013,09,22,04,35,11.20
2013,09,22,04,36,11.20
2013,09,22,04,37,11.30
2013,09,22,04,38,11.30
2013,09,22,04,39,11.30
2013,09,22,04,40,11.30
2013,09,22,04,41,11.30
2013,09,22,04,42,11.30
2013,09,22,04,43,11.30
2013,09,22,04,44,11.30
2013,09,22,04,45,11.30
2013,09,22,04,46,11.30
2013,09,22,04,47,11.40
2013,09,22,04,48,11.40
2013,09,22,04,49,11.40
2013,09,22,04,50,11.40
2013,09,22,04,51,11.40
2013,09,22,04,52,11.40
2013,09,22,04,53,11.40
2013,09,22,04,54,11.40
2013,09,22,04,55,11.40
2013,09,22,04,56,11.40
2013,09,22,04,57,11.30
2013,09,22,04,58,11.30
2013,09,22,04,59,11.30
2013,09,22,05,00,11.30
2013,09,22,05,01,11.30
2013,09,22,05,02,11.30
2013,09,22,05,03,11.30
2013,09,22,05,04,11.30
2013,09,22,05,05,11.30
2013,09,22,05,06,11.30
2013,09,22,05,07,11.30
2013,09,22,05,13,11.30
2013,09,22,05,14,11.30
2013,09,22,05,15,11.30
2013,09,22,05,16,11.30
2013,09,22,05,17,11.30
2013,09,22,05,18,11.30
2013,09,22,05,19,11.30
2013,09,22,05,20,11.30
2013,09,22,05,21,11.30
2013,09,22,06,30,11.20
2013,09,22,06,31,11.20
2013,09,22,06,32,11.20
2013,09,22,06,33,11.20
2013,09,22,06,34,11.20
2013,09,22,06,35,11.20
2013,09,22,06,36,11.20
2013,09,22,06,37,11.20
2013,09,22,06,38,11.20
2013,09,22,06,39,11.20
2013,09,22,06,40,11.20
2013,09,22,06,41,11.20
2013,09,22,06,42,11.20
2013,09,22,06,43,11.20
2013,09,22,06,44,11.10
2013,09,22,06,45,11.10
2013,09,22,06,46,11.10
2013,09,22,06,47,11.10
2013,09,22,06,48,11.00
2013,09,22,06,49,11.00
2013,09,22,06,50,11.00
2013,09,22,06,51,11.00
2013,09,22,06,52,11.00
2013,09,22,06,53,10.90
2013,09,22,06,54,10.90
2013,09,22,06,55,10.90
2013,09,22,06,56,10.90
2013,09,22,06,57,10.90
2013,09,22,06,58,10.90
2013,09,22,07,00,10.90
2013,09,22,07,01,10.90
2013,09,22,07,02,10.90
2013,09,22,07,03,10.90
2013,09,22,07,04,10.80
2013,09,22,07,05,10.90
2013,09,22,07,06,10.90
2013,09,22,07,07,10.80
2013,09,22,07,08,10.80
2013,09,22,07,09,10.80
2013,09,22,07,10,10.80
2013,09,22,07,11,10.80
2013,09,22,07,12,10.80
2013,09,22,07,13,10.80
2013,09,22,07,14,10.80
2013,09,22,07,15,10.80
2013,09,22,07,16,10.80
2013,09,22,07,17,10.80
2013,09,22,07,18,10.80
2013,09,22,07,19,10.80
2013,09,22,07,20,10.80
2013,09,22,07,21,10.80
2013,09,22,07,22,10.80
2013,09,22,07,23,10.80
2013,09,22,07,24,10.80
2013,09,22,07,25,10.80
2013,09,22,07,26,10.80
2013,09,22,07,27,10.80
2013,09,22,07,28,10.80
2013,09,22,07,29,10.70
2013,09,22,07,30,10.70
2013,09,22,07,31,10.80
2013,09,22,07,32,10.80
2013,09,22,07,33,10.80
2013,09,22,07,34,10.80
2013,09,22,07,35,10.80
2013,09,22,07,36,10.80
2013,09,22,07,37,10.80
2013,09,22,07,38,10.80
2013,09,22,07,39,10.80
2013,09,22,07,40,10.80
2013,09,22,07,41,10.80
2013,09,22,07,42,10.90
2013,09,22,07,43,10.90
2013,09,22,07,44,10.90
2013,09,22,07,45,10.90
2013,09,22,07,46,10.90
2013,09,22,07,47,10.90
2013,09,22,07,48,11.00
2013,09,22,07,49,11.00
2013,09,22,07,50,11.00
2013,09,22,07,51,11.00
2013,09,22,07,52,11.00
2013,09,22,07,53,11.10
2013,09,22,07,54,11.10
2013,09,22,07,55,11.10
2013,09,22,07,56,11.10
2013,09,22,07,57,11.10
2013,09,22,07,58,11.10
2013,09,22,07,59,11.10
2013,09,22,08,00,11.10
2013,09,22,08,01,11.00
2013,09,22,08,02,10.90
2013,09,22,08,03,10.90
2013,09,22,08,04,10.80
2013,09,22,08,05,10.80
2013,09,22,08,06,10.80
2013,09,22,08,07,10.70
2013,09,22,08,08,10.70
2013,09,22,08,09,10.70
2013,09,22,08,10,10.70
2013,09,22,08,11,10.70
2013,09,22,08,12,10.70
2013,09,22,08,13,10.70
2013,09,22,08,14,10.70
2013,09,22,08,15,10.70
2013,09,22,08,16,10.70
2013,09,22,08,17,10.70
2013,09,22,08,18,10.70
2013,09,22,08,19,10.70
2013,09,22,08,20,10.60
2013,09,22,08,21,10.70
2013,09,22,08,22,10.60
2013,09,22,08,23,10.60
2013,09,22,08,24,10.60
2013,09,22,08,25,10.60
2013,09,22,08,26,10.60
2013,09,22,08,27,10.60
2013,09,22,08,28,10.50
2013,09,22,08,29,10.50
2013,09,22,08,30,10.50
2013,09,22,08,31,10.60
2013,09,22,11,10,12.30
2013,09,22,11,11,12.30
2013,09,22,11,12,12.30
2013,09,22,11,13,12.30
2013,09,22,11,14,12.30
2013,09,22,11,15,12.30
2013,09,22,11,16,12.30
2013,09,22,11,17,12.30
2013,09,22,11,18,12.20
2013,09,22,11,19,12.20
2013,09,22,11,20,12.20
2013,09,22,11,21,12.20
2013,09,22,11,22,12.20
2013,09,22,11,23,12.20
2013,09,22,11,24,12.20
2013,09,22,11,25,12.10
2013,09,22,11,26,12.10
2013,09,22,11,27,12.10
2013,09,22,11,28,12.10
2013,09,22,11,29,12.00
2013,09,22,11,30,12.00
2013,09,22,11,31,12.00
2013,09,22,11,32,12.00
2013,09,22,11,33,11.90
2013,09,22,11,34,11.90
2013,09,22,11,35,11.90
2013,09,22,11,36,11.90
2013,09,22,11,37,11.90
2013,09,22,11,38,11.90
2013,09,22,11,39,11.90
2013,09,22,11,40,11.80
2013,09,22,11,41,11.80
2013,09,22,11,42,11.80
2013,09,22,11,43,11.80
2013,09,22,11,44,11.80
2013,09,22,11,45,11.80
2013,09,22,11,46,11.80
2013,09,22,11,47,11.90
2013,09,22,11,48,11.90
2013,09,22,11,49,11.90
2013,09,22,11,50,11.90
2013,09,22,11,51,11.90
2013,09,22,11,52,11.90
2013,09,22,11,53,11.90
2013,09,22,11,54,11.90
2013,09,22,11,55,11.90
2013,09,22,11,56,11.90
2013,09,22,11,57,11.90
2013,09,22,11,58,11.90
2013,09,22,11,59,11.90
2013,09,22,12,00,11.90
2013,09,22,12,01,11.90
2013,09,22,12,02,11.90
2013,09,22,12,03,11.90
2013,09,22,12,04,12.00
2013,09,22,12,05,12.00
2013,09,22,12,06,12.00
2013,09,22,12,07,12.00
2013,09,22,12,08,12.00
2013,09,22,12,09,12.00
2013,09,22,12,10,12.00
2013,09,22,12,11,12.00
2013,09,22,12,12,12.00
2013,09,22,12,13,12.00
2013,09,22,12,14,12.00
2013,09,22,12,15,12.00
2013,09,22,12,16,12.00
2013,09,22,12,17,11.90
2013,09,22,12,18,11.90
2013,09,22,12,19,12.00
2013,09,22,12,20,11.90
2013,09,22,12,21,11.90
2013,09,22,12,22,11.90
2013,09,22,12,23,11.90
2013,09,22,12,24,11.90
2013,09,22,12,25,11.80
2013,09,22,12,26,11.80
2013,09,22,12,27,11.80
2013,09,22,12,28,11.80
2013,09,22,12,29,11.80
2013,09,22,12,30,11.80
2013,09,22,12,31,11.80
2013,09,22,12,32,11.80
2013,09,22,12,33,11.80
2013,09,22,12,34,11.80
2013,09,22,12,35,11.80
2013,09,22,12,36,11.90
2013,09,22,12,37,11.90
2013,09,22,12,38,11.90
2013,09,22,12,39,11.90
2013,09,22,12,40,11.90
2013,09,22,12,41,11.90
2013,09,22,12,42,11.90
2013,09,22,12,43,11.90
2013,09,22,12,44,11.90
2013,09,22,12,45,11.90
2013,09,22,12,46,11.90
2013,09,22,12,47,11.90
2013,09,22,12,48,11.90
2013,09,22,12,49,11.90
2013,09,22,12,50,11.90
2013,09,22,12,51,11.80
2013,09,22,12,52,11.80
2013,09,22,12,53,11.70
2013,09,22,12,54,11.70
2013,09,22,12,55,11.70
2013,09,22,12,56,11.70
2013,09,22,12,57,11.70
2013,09,22,12,58,11.70
2013,09,22,12,59,11.70
2013,09,22,13,00,11.80
2013,09,22,13,01,11.80
2013,09,22,13,02,11.80
2013,09,22,13,03,11.90
2013,09,22,13,04,11.90
2013,09,22,13,05,11.90
2013,09,22,13,06,12.00
2013,09,22,13,07,12.00
2013,09,22,13,08,12.00
2013,09,22,13,09,12.10
2013,09,22,13,13,12.50
2013,09,22,13,32,12.80
2013,09,22,13,33,12.80
2013,09,22,13,34,12.90
2013,09,22,13,35,12.90
2013,09,22,13,36,13.00
2013,09,22,13,37,13.10
2013,09,22,13,38,13.10
2013,09,22,13,39,13.20
2013,09,22,13,40,13.30
2013,09,22,13,41,13.30
2013,09,22,13,42,13.30
2013,09,22,13,43,13.30
2013,09,22,13,44,13.30
2013,09,22,13,45,13.30
2013,09,22,13,46,13.30
2013,09,22,13,47,13.30
2013,09,22,13,48,13.30
2013,09,22,13,49,13.40
2013,09,22,13,50,13.50
2013,09,22,13,51,13.50
2013,09,22,15,42,12.70
2013,09,22,17,13,12.80
2013,09,22,17,14,12.80
2013,09,22,17,15,12.80
2013,09,22,17,16,12.80
2013,09,22,17,17,12.80
2013,09,22,17,18,12.90
2013,09,22,17,19,12.90
2013,09,22,17,20,13.00
2013,09,22,17,21,13.00
2013,09,22,17,22,13.10
2013,09,22,17,23,13.20
2013,09,22,17,24,13.30
2013,09,22,17,25,13.30
2013,09,22,17,26,13.30
2013,09,22,17,27,13.20
2013,09,22,17,28,13.20
2013,09,22,17,29,13.20
2013,09,22,17,30,13.20
2013,09,22,17,41,12.70
2013,09,22,17,44,12.80
2013,09,22,17,45,12.90
2013,09,22,17,46,12.90
2013,09,22,17,47,12.90
2013,09,22,17,48,12.90
2013,09,22,17,49,13.00
2013,09,22,18,11,12.90
2013,09,22,18,12,12.90
2013,09,22,18,13,12.80
2013,09,22,18,28,12.90
2013,09,22,18,29,12.90
2013,09,22,18,30,12.90
2013,09,22,18,31,12.90
2013,09,22,18,32,12.90
2013,09,22,18,33,12.90
2013,09,22,18,34,12.90
2013,09,22,18,35,12.90
2013,09,22,18,36,12.90
2013,09,22,18,37,12.90
2013,09,22,18,38,12.90
2013,09,22,18,39,12.90
2013,09,22,18,40,12.90
2013,09,22,18,41,12.80
2013,09,22,18,42,12.80
2013,09,22,18,43,12.80
2013,09,22,18,44,12.80
2013,09,22,18,45,12.80
2013,09,22,18,46,12.80
2013,09,22,18,47,12.80
2013,09,22,18,48,12.70
2013,09,22,18,49,12.70
2013,09,22,18,50,12.70
2013,09,22,18,51,12.70
2013,09,22,18,52,12.70
2013,09,22,18,53,12.70
2013,09,22,18,54,12.70
2013,09,22,18,55,12.70
2013,09,22,18,56,12.70
2013,09,22,18,57,12.80
2013,09,22,18,59,12.80
2013,09,22,19,00,12.80
2013,09,22,19,01,12.80
2013,09,22,19,02,12.80
2013,09,22,19,04,12.80
2013,09,22,19,05,12.80
2013,09,22,19,06,12.80
2013,09,22,19,07,12.80
2013,09,22,19,08,12.80
2013,09,22,19,09,12.80
2013,09,22,19,10,12.80
2013,09,22,19,11,12.70
2013,09,22,19,12,12.70
2013,09,22,19,13,12.70
2013,09,22,19,14,12.70
2013,09,22,19,15,12.60
2013,09,22,19,16,12.60
2013,09,22,19,17,12.60
2013,09,22,19,18,12.60
2013,09,22,19,19,12.60
2013,09,22,19,20,12.50
2013,09,22,19,21,12.50
2013,09,22,19,22,12.40
2013,09,22,19,23,12.40
2013,09,22,19,24,12.40
2013,09,22,19,25,12.40
2013,09,22,19,26,12.30
2013,09,22,19,27,12.30
2013,09,22,19,28,12.30
2013,09,22,19,29,12.30
2013,09,22,19,30,12.20
2013,09,22,19,31,12.20
2013,09,22,19,32,12.20
2013,09,22,19,33,12.20
2013,09,22,19,34,12.20
2013,09,22,19,35,12.10
2013,09,22,19,36,12.10
2013,09,22,19,37,12.10
2013,09,22,19,38,12.10
2013,09,22,19,39,12.10
2013,09,22,19,40,12.00
2013,09,22,19,41,12.00
2013,09,22,19,42,12.00
2013,09,22,19,43,12.00
2013,09,22,19,44,12.00
2013,09,22,19,45,11.90
2013,09,22,19,46,11.90
2013,09,22,19,47,11.90
2013,09,22,19,48,11.90
2013,09,22,19,49,11.90
2013,09,22,19,50,11.90
2013,09,22,19,51,11.90
2013,09,22,19,52,11.90
2013,09,22,19,53,11.90
2013,09,22,19,54,11.90
2013,09,22,19,55,11.90
2013,09,22,19,56,11.90
2013,09,22,19,57,11.90
2013,09,22,19,58,11.90
2013,09,22,19,59,11.90
2013,09,22,20,00,11.90
2013,09,22,20,01,11.90
2013,09,22,20,02,11.90
2013,09,22,20,03,11.90
2013,09,22,20,04,11.90
2013,09,22,20,05,11.90
2013,09,22,20,06,11.90
2013,09,22,20,07,11.90
2013,09,22,20,08,11.90
2013,09,22,20,09,11.90
2013,09,22,20,10,11.80
2013,09,22,20,11,11.80
2013,09,22,20,12,11.80
2013,09,22,20,13,11.80
2013,09,22,20,14,11.80
2013,09,22,20,15,11.80
2013,09,22,20,16,11.80
2013,09,22,20,17,11.80
2013,09,22,20,18,11.80
2013,09,22,20,19,11.80
2013,09,22,20,20,11.80
2013,09,22,20,21,11.80
2013,09,22,20,22,11.80
2013,09,22,20,23,11.80
2013,09,22,20,24,11.70
2013,09,22,20,25,11.70
2013,09,22,20,26,11.70
2013,09,22,21,37,10.80
2013,09,22,21,38,10.80
2013,09,22,21,39,10.80
2013,09,22,21,40,10.80
2013,09,22,21,41,10.80
2013,09,22,22,09,11.20
2013,09,22,22,10,11.20
2013,09,22,22,11,11.30
2013,09,22,22,12,11.30
2013,09,22,22,13,11.30
2013,09,22,22,14,11.30
2013,09,22,22,15,11.30
2013,09,22,22,16,11.30
2013,09,22,22,30,11.70
2013,09,22,22,31,11.70
2013,09,22,22,32,11.70
2013,09,22,22,33,11.70
2013,09,22,22,34,11.70
2013,09,22,22,37,11.80
2013,09,22,22,38,11.80
2013,09,22,22,39,11.80
2013,09,22,22,40,11.80
2013,09,22,22,41,11.80
2013,09,22,22,56,11.80
2013,09,22,22,57,11.80
2013,09,22,22,58,11.70
2013,09,22,22,59,11.70
2013,09,22,23,00,11.70
2013,09,22,23,01,11.70
2013,09,22,23,02,11.70
2013,09,22,23,03,11.60
2013,09,22,23,04,11.60
2013,09,22,23,05,11.60
2013,09,22,23,10,11.50
2013,09,22,23,11,11.50
2013,09,22,23,12,11.40
2013,09,22,23,13,11.40
2013,09,22,23,14,11.40
2013,09,22,23,15,11.40
2013,09,22,23,16,11.40
2013,09,22,23,17,11.30
2013,09,22,23,18,11.30
2013,09,22,23,19,11.30
2013,09,22,23,20,11.30
2013,09,22,23,21,11.30
2013,09,22,23,22,11.30
2013,09,22,23,23,11.30
2013,09,22,23,24,11.30
2013,09,22,23,25,11.30
2013,09,22,23,26,11.30
2013,09,22,23,27,11.30
2013,09,22,23,28,11.30
2013,09,22,23,29,11.20
2013,09,22,23,30,11.20
2013,09,22,23,31,11.20
2013,09,22,23,32,11.20
2013,09,22,23,39,11.20
2013,09,22,23,40,11.20
2013,09,22,23,43,11.20
2013,09,22,23,44,11.20
2013,09,22,23,45,11.20
2013,09,22,23,48,11.10
